User: anonymous   Login
Location: Wawayanda State Park
(41.1833°N, 74.4333°W)
Time: 14:34:38
(UTC-04:00)
Language:

RESURS DK-1 - Orbit

View from above orbital plane
View from above orbital plane
View from above satellite
View from above satellite

Ground track
Ground track

The orbit data is extracted from the following two-line orbital elements,

1 29228U 06021A   14304.49421804  .00001837  00000-0  15137-3 0  3810
2 29228 069.9388 018.1015 0005082 336.3527 118.3841 15.00930656464025
Epoch (UTC): 31 October 2014 11:51:40
Eccentricity: 0.0005082
inclination: 69.9388°
perigee height: 560 km
apogee height: 567 km
right ascension of ascending node: 18.1015°
argument of perigee: 336.3527°
revolutions per day: 15.00930656
mean anomaly at epoch: 118.3841°
orbit number at epoch: 46402

The dashed part of the orbit path shows where the satellite is in the earth's shadow,  

DLR